Location: Dulzura
(32.6442°N, 116.7814°W)
Time: 19:55:06
(UTC+00:00)

CZ-2C R/B - Pass Details

Date: 07 December 2021
Orbit: 784 x 871 km, 98.2° (Epoch: 16 January)

Event Time Altitude Azimuth Distance (km) Brightness Sun altitude
Rises 12:50:20 0° 159° (SSE) 3,413 6.3 -21.8°
Reaches altitude 10° 12:52:44 10° 156° (SSE) 2,470 5.6 -21.3°
Maximum altitude 12:58:09 66° 75° (ENE) 911 3.0 -20.2°
Drops below altitude 10° 13:03:30 10° 354° (N) 2,428 4.9 -19.1°
Sets 13:05:50 0° 352° (N) 3,351 5.6 -18.6°
